Location: Unspecified
(52.1971°N, 0.0000°E)
Time: 23:54:24
(UTC+00:00)

ISS - Pass Details

Date: 24 May 2019
Orbit: 407 x 418 km, 51.6° (Epoch: 20 June)

Event Time Altitude Azimuth Distance (km) Brightness Sun altitude
Rises 23:45:30 0° 282° (WNW) 2,364 0.3 -16.9°
Reaches altitude 10° 23:47:42 10° 273° (W) 1,501 -0.9 -16.9°
Enters shadow 23:50:01 30° 237° (WSW) 788 -2.7 -16.9°
